Theta_e
346 345 342 337 334 331 330 328 326 330 329 325 323 324 325 323 323 324 322 320 321 319
349 343 338 338 335 329 326 326 325 324 323 323 323 324 325 323 322 323 322 322 322 322
334 335 333 333 330 332 331 328 324 322 321 322 321 321 321 321 321 321 321 322 323 322
334 333 332 330 332 330 327 325 322 322 320 320 320 319 321 321 319 319 321 321 320 319
333 332 330 327 327 327 324 323 321 320 318 317 317 320 320 319 320 320 319 321 320 317
331 330 328 326 325 323 322 321 320 318 317 316 317 318 320 321 320 321 321 319 317 317
323 322 322 322 322 321 320 319 317 317 317 317 317 318 319 320 321 320 321 320 319 318
318 318 318 319 320 319 317 316 316 316 316 316 314 310 317 320 318 319 319 320 318 317
316 317 317 318 317 316 315 315 315 314 314 313 309 297 300 305 317 318 317 316 316 316
317 317 317 316 315 315 314 314 314 313 312 310 308 296 296 302 318 316 314 310 312 312
317 316 315 315 313 313 312 311 311 311 312 309 302 295 295 298 316 315 314 312 312 312
316 315 315 313 312 312 310 310 310 310 310 309 305 294 294 302 315 312 311 308 304 305
316 315 313 312 312 312 311 310 309 308 309 301 308 292 294 298 312 311 311 309 306 293
313 312 312 312 312 311 311 310 310 308 308 307 303 301 294 294 307 307 306 304 303 300
Wind_Speed
17 11 11 12 11 8 6 7 5 7 8 10 9 7 7 4 4 4 2 1 3 3
12 12 10 13 10 8 10 8 9 6 8 9 9 7 5 4 3 2 1 1 1 4
14 13 13 12 13 13 11 11 10 9 8 9 7 5 3 3 3 2 1 1 2 4
15 16 14 13 12 12 12 11 10 9 8 8 6 4 4 4 4 4 4 3 2 3
17 17 15 14 13 13 11 10 10 8 7 6 6 5 4 4 3 3 3 3 2 3
17 16 16 15 14 13 11 10 8 7 7 6 5 5 4 3 3 3 4 2 3 3
16 17 16 15 14 13 11 10 9 8 7 7 5 5 3 3 2 0 0 2 4 5
16 15 15 15 14 12 11 10 9 9 8 7 6 7 6 2 1 1 1 1 4 7
18 17 16 15 14 13 12 11 10 9 8 8 7 11 10 9 0 1 4 5 7 5
17 17 16 15 14 13 12 10 10 9 9 10 9 13 11 10 0 4 5 5 4 4
18 17 16 15 14 13 10 10 9 9 9 9 9 12 13 12 3 4 5 8 8 8
17 17 16 15 13 11 11 9 9 9 8 8 10 12 13 13 3 5 6 8 10 10
16 15 15 14 12 10 10 10 8 8 8 7 10 13 13 13 3 4 2 4 10 17
15 14 14 13 10 9 9 8 8 8 8 10 10 11 13 16 8 7 6 6 7 9
Wind_Direction
146 153 133 133 142 149 119 101 107 114 120 115 115 110 114 119 104 98 90 39 326 277
149 121 130 133 124 112 113 117 112 109 96 94 92 91 107 102 120 134 176 137 273 291
109 115 117 125 130 131 119 117 124 105 96 95 91 88 76 153 140 143 125 136 75 345
126 118 127 126 129 125 123 126 120 114 109 98 97 96 104 100 126 112 96 74 63 23
123 124 124 120 118 120 120 114 109 108 101 100 99 97 108 119 117 93 77 77 0 352
125 121 120 120 121 120 118 110 104 98 92 90 90 109 105 102 81 46 47 58 289 5
116 117 119 120 118 115 111 105 97 90 88 86 95 98 89 81 69 319 164 95 25 4
117 116 117 112 107 106 101 95 93 92 86 75 62 33 355 45 327 285 82 73 358 60
118 115 112 110 107 101 93 87 84 80 78 69 57 6 352 324 8 84 34 27 16 6
119 117 112 108 102 97 95 96 92 90 82 67 54 7 352 331 276 68 52 40 20 349
117 115 113 106 103 101 101 95 90 87 82 75 53 9 352 334 75 84 74 39 25 27
117 115 113 108 108 108 105 96 87 80 71 74 55 14 351 328 128 88 73 79 42 24
114 113 110 114 109 108 101 96 91 85 80 48 66 31 0 349 28 52 74 125 120 67
108 112 109 108 99 99 86 87 82 83 77 77 35 54 19 9 42 8 18 27 17 43